Location: Unspecified
(0.0000°N, 0.0000°E)
Time: 00:50:47
(UTC+00:00)

Explorer 25 - Pass Details

Date: 15 March 2026
Orbit: 523 x 2264 km, 81.3° (Epoch: 14 April)

Event Time Altitude Azimuth Distance (km) Brightness Sun altitude
Rises 19:17:11 0° 203° (SSW) 5,730 12.8 -17.1°
Reaches altitude 10° 19:21:24 10° 211° (SSW) 4,586 12.4 -18.1°
Maximum altitude 19:31:16 33° 268° (W) 2,665 11.4 -20.6°
Drops below altitude 10° 19:38:55 10° 329° (NNW) 3,492 11.7 -22.5°
Sets 19:41:44 0° 339° (NNW) 4,225 12.1 -23.2°
